User: anonymous   Login
Location: Vancouver
(49.2500°N, 123.1330°W)
Time: 11:26:01
(UTC-07:00)
Language:

Iridium 35 - Orbit

View from above orbital plane
View from above orbital plane
View from above satellite
View from above satellite

Ground track
Ground track

The orbit data is extracted from the following two-line orbital elements,

1 24966U 97056B   16238.52594312 -.00000038  00000-0 -20478-4 0  9993
2 24966  86.3922  82.3137 0002071  82.2717 277.8714 14.34216720990150
Epoch (UTC): 25 August 2016 12:37:21
Eccentricity: 0.0002071
inclination: 86.3922°
perigee height: 776 km
apogee height: 779 km
right ascension of ascending node: 82.3137°
argument of perigee: 82.2717°
revolutions per day: 14.34216720
mean anomaly at epoch: 277.8714°
orbit number at epoch: 99015

The dashed part of the orbit path shows where the satellite is in the earth's shadow,  

DLR